Regional Weather Roundup
Issued by NWS

Home | Current Version | Previous Version | Text Only | Print | Product List | Glossary On
Versions: 1 2 3 4 5 6 7 8 9 10 11 12 13 14 15 16 17 18 19 20 21 22 23 24 25 26 27 28 29 30 31 32 33 34 35 36 37 38 39 40 41 42 43 44 45 46 47 48 49 50
000
ASUS43 KTOP 151408
RWRKS

WEATHER ROUNDUP FOR KANSAS
NATIONAL WEATHER SERVICE GOODLAND KS
800 AM CST FRI DEC 15 2017

NOTE:  "FAIR" INDICATES FEW OR NO CLOUDS BELOW 12,000 FEET WITH NO
SIGNIFICANT WEATHER AND/OR OBSTRUCTIONS TO VISIBILITY.

KSZ001>006-013>018-027>032-041>047-151500-
NORTHWEST KANSAS

CITY           SKY/WX    TMP DP  RH WIND       PRES   REMARKS
GOODLAND       CLOUDY    22  16  78 SW15      30.06F WCI   9
HAYS           CLOUDY    18  15  88 W7        30.15F
HILL CITY      CLOUDY    19  15  84 W3        30.11F
RUSSELL        CLOUDY    19  18  95 SW12      30.14F WCI   7
$$

KSZ061>065-074>080-084>089-151500-
SOUTHWEST KANSAS

CITY           SKY/WX    TMP DP  RH WIND       PRES   REMARKS
DODGE CITY     CLOUDY    20  14  77 W10       30.18F WCI   9
ELKHART        CLOUDY    28  24  86 W9        30.17F
GARDEN CITY    CLOUDY    14  10  84 W9        30.16F
GREAT BEND     CLOUDY    17  15  92 SW8       30.18F
LIBERAL        CLOUDY    17  14  88 SW8       30.21F
PRATT          CLOUDY    20  15  83 W9        30.21S
$$

KSZ066>073-081>083-090>101-151500-
SOUTHEAST KANSAS

CITY           SKY/WX    TMP DP  RH WIND       PRES   REMARKS
CHANUTE        CLEAR     30  27  88 W6        30.20S
COFFEYVILLE    CLEAR     32  30  92 NW5       30.23R
HUTCHINSON     CLEAR     22  20  92 W5        30.20F
MEDICINE LODGE   N/A     21  19  92 NW5       30.24S
NEWTON         CLEAR     24  22  91 W7        30.19F
PARSONS        CLEAR     26  26 100 CALM      30.22S FOG
WICHITA INTL   PTCLDY    26  23  88 W3        30.21F
WICHITA JABRA  CLEAR     27  25  92 W9        30.20F
WICHITA MCCONL CLEAR     28  24  84 CALM      30.21F
WINFIELD       CLEAR     24  23  96 W3        30.25S
$$

KSZ007>012-019>026-033>040-048>060-102>105-151500-
NORTHEAST KANSAS

CITY           SKY/WX    TMP DP  RH WIND       PRES   REMARKS
CONCORDIA      CLEAR     25  22  88 SW9       30.13F
EMPORIA        PTCLDY    24  22  91 W7        30.18F
LAWRENCE       CLOUDY    27  26  96 CALM      30.16S FOG
MANHATTAN      CLEAR     27  23  85 SW8       30.17F
MARYSVILLE     PTCLDY    27  23  86 SW6       30.12F
OLATHE IND     CLEAR     30  28  92 W5        30.15F
OLATHE EXE     CLEAR     31  29  92 W5        30.14S
SALINA         CLEAR     23  21  92 SW7       30.18F
TOPEKA BILLARD CLEAR     31  29  92 W5        30.16F
TOPEKA FORBES  PTCLDY    28  26  92 W7        30.15F
$$




USA.gov is the U.S. government's official web portal to all federal, state and local government web resources and services.